Year,Month,Day,Hour,Minute,Value (Times are PST for temperature in C)
2016,08,13,00,00,20.20
2016,08,13,00,01,20.10
2016,08,13,00,02,20.10
2016,08,13,00,03,20.00
2016,08,13,00,04,20.00
2016,08,13,00,05,19.90
2016,08,13,00,06,19.90
2016,08,13,00,07,19.80
2016,08,13,00,08,19.80
2016,08,13,00,09,19.70
2016,08,13,00,10,19.70
2016,08,13,00,11,19.70
2016,08,13,00,12,19.60
2016,08,13,00,13,19.60
2016,08,13,00,14,19.60
2016,08,13,00,15,19.50
2016,08,13,00,16,19.50
2016,08,13,00,17,19.40
2016,08,13,00,18,19.40
2016,08,13,00,19,19.40
2016,08,13,00,20,19.30
2016,08,13,00,21,19.30
2016,08,13,00,22,19.30
2016,08,13,00,23,19.30
2016,08,13,00,24,19.20
2016,08,13,00,25,19.20
2016,08,13,00,26,19.20
2016,08,13,00,27,19.10
2016,08,13,00,28,19.10
2016,08,13,00,29,19.10
2016,08,13,00,30,19.10
2016,08,13,00,31,19.00
2016,08,13,00,32,19.00
2016,08,13,00,33,18.90
2016,08,13,00,34,18.90
2016,08,13,00,35,18.90
2016,08,13,00,36,18.80
2016,08,13,00,37,18.80
2016,08,13,00,38,18.80
2016,08,13,00,39,18.80
2016,08,13,00,40,18.70
2016,08,13,00,41,18.70
2016,08,13,00,42,18.70
2016,08,13,00,43,18.70
2016,08,13,00,44,18.70
2016,08,13,00,45,18.60
2016,08,13,00,46,18.60
2016,08,13,00,47,18.60
2016,08,13,00,48,18.60
2016,08,13,00,49,18.70
2016,08,13,00,50,18.70
2016,08,13,00,51,18.70
2016,08,13,00,52,18.60
2016,08,13,00,53,18.60
2016,08,13,00,54,18.70
2016,08,13,00,55,18.70
2016,08,13,00,56,18.80
2016,08,13,00,57,18.80
2016,08,13,00,58,18.90
2016,08,13,00,59,18.90
2016,08,13,01,00,18.90
2016,08,13,01,01,18.90
2016,08,13,01,02,18.90
2016,08,13,01,03,18.90
2016,08,13,01,04,18.80
2016,08,13,01,05,18.80
2016,08,13,01,06,18.80
2016,08,13,01,07,18.70
2016,08,13,01,08,18.70
2016,08,13,01,09,18.70
2016,08,13,01,10,18.60
2016,08,13,01,11,18.60
2016,08,13,01,12,18.60
2016,08,13,01,13,18.60
2016,08,13,01,14,18.60
2016,08,13,01,15,18.60
2016,08,13,01,16,18.60
2016,08,13,01,17,18.70
2016,08,13,01,18,18.70
2016,08,13,01,19,18.60
2016,08,13,01,20,18.60
2016,08,13,01,21,18.60
2016,08,13,01,22,18.60
2016,08,13,01,23,18.60
2016,08,13,01,24,18.60
2016,08,13,01,25,18.60
2016,08,13,01,26,18.60
2016,08,13,01,27,18.60
2016,08,13,01,28,18.60
2016,08,13,01,29,18.60
2016,08,13,01,30,18.60
2016,08,13,01,31,18.70
2016,08,13,01,32,18.60
2016,08,13,01,33,18.60
2016,08,13,01,34,18.60
2016,08,13,01,35,18.60
2016,08,13,01,36,18.60
2016,08,13,01,37,18.60
2016,08,13,01,38,18.60
2016,08,13,01,39,18.60
2016,08,13,01,40,18.60
2016,08,13,01,41,18.60
2016,08,13,01,42,18.60
2016,08,13,01,43,18.60
2016,08,13,01,44,18.50
2016,08,13,01,45,18.50
2016,08,13,01,46,18.50
2016,08,13,01,47,18.40
2016,08,13,01,48,18.40
2016,08,13,01,49,18.40
2016,08,13,01,50,18.40
2016,08,13,01,51,18.40
2016,08,13,01,52,18.30
2016,08,13,01,53,18.30
2016,08,13,01,54,18.30
2016,08,13,01,55,18.20
2016,08,13,01,56,18.20
2016,08,13,01,57,18.10
2016,08,13,01,58,18.10
2016,08,13,01,59,18.10
2016,08,13,02,00,18.00
2016,08,13,02,01,18.00
2016,08,13,02,02,17.90
2016,08,13,02,03,17.90
2016,08,13,02,04,17.90
2016,08,13,02,05,17.80
2016,08,13,02,06,17.80
2016,08,13,02,07,17.70
2016,08,13,02,08,17.70
2016,08,13,02,09,17.70
2016,08,13,02,10,17.70
2016,08,13,02,11,17.70
2016,08,13,02,12,17.60
2016,08,13,02,13,17.60
2016,08,13,02,14,17.60
2016,08,13,02,15,17.60
2016,08,13,02,16,17.60
2016,08,13,02,17,17.60
2016,08,13,02,18,17.60
2016,08,13,02,19,17.70
2016,08,13,02,20,17.70
2016,08,13,02,21,17.80
2016,08,13,02,22,17.80
2016,08,13,02,23,17.80
2016,08,13,02,24,17.80
2016,08,13,02,25,17.80
2016,08,13,02,26,17.80
2016,08,13,02,27,17.80
2016,08,13,02,28,17.80
2016,08,13,02,29,17.80
2016,08,13,02,30,17.80
2016,08,13,02,31,17.70
2016,08,13,02,32,17.70
2016,08,13,02,33,17.70
2016,08,13,02,34,17.70
2016,08,13,02,35,17.60
2016,08,13,02,36,17.60
2016,08,13,02,37,17.60
2016,08,13,02,38,17.60
2016,08,13,02,39,17.50
2016,08,13,02,40,17.50
2016,08,13,02,41,17.50
2016,08,13,02,42,17.40
2016,08,13,02,43,17.40
2016,08,13,02,44,17.40
2016,08,13,02,45,17.40
2016,08,13,02,46,17.40
2016,08,13,02,47,17.40
2016,08,13,02,48,17.40
2016,08,13,02,49,17.40
2016,08,13,02,50,17.40
2016,08,13,02,51,17.40
2016,08,13,02,52,17.40
2016,08,13,02,53,17.50
2016,08,13,02,54,17.50
2016,08,13,02,55,17.60
2016,08,13,02,56,17.60
2016,08,13,02,57,17.70
2016,08,13,02,58,17.80
2016,08,13,02,59,17.80
2016,08,13,03,00,17.90
2016,08,13,03,01,17.90
2016,08,13,03,02,17.90
2016,08,13,03,03,18.00
2016,08,13,03,04,18.00
2016,08,13,03,05,18.00
2016,08,13,03,06,18.00
2016,08,13,03,07,18.00
2016,08,13,03,08,18.00
2016,08,13,03,09,18.00
2016,08,13,03,10,18.00
2016,08,13,03,11,18.00
2016,08,13,03,12,18.00
2016,08,13,03,13,18.00
2016,08,13,03,14,18.00
2016,08,13,03,15,18.00
2016,08,13,03,16,18.10
2016,08,13,03,17,18.10
2016,08,13,03,18,18.10
2016,08,13,03,19,18.10
2016,08,13,03,20,18.10
2016,08,13,03,21,18.20
2016,08,13,03,22,18.20
2016,08,13,03,23,18.20
2016,08,13,03,24,18.20
2016,08,13,03,25,18.20
2016,08,13,03,26,18.20
2016,08,13,03,27,18.20
2016,08,13,03,28,18.20
2016,08,13,03,29,18.20
2016,08,13,03,30,18.20
2016,08,13,03,31,18.20
2016,08,13,03,32,18.20
2016,08,13,03,33,18.20
2016,08,13,03,34,18.20
2016,08,13,03,35,18.20
2016,08,13,03,36,18.20
2016,08,13,03,37,18.30
2016,08,13,03,38,18.30
2016,08,13,03,39,18.30
2016,08,13,03,40,18.30
2016,08,13,03,41,18.30
2016,08,13,03,42,18.30
2016,08,13,03,43,18.30
2016,08,13,03,44,18.30
2016,08,13,03,45,18.30
2016,08,13,03,46,18.30
2016,08,13,03,47,18.20
2016,08,13,03,48,18.20
2016,08,13,03,49,18.20
2016,08,13,03,50,18.20
2016,08,13,03,51,18.10
2016,08,13,03,52,18.10
2016,08,13,03,53,18.10
2016,08,13,03,54,18.00
2016,08,13,03,55,18.00
2016,08,13,03,56,17.90
2016,08,13,03,57,17.90
2016,08,13,03,58,17.90
2016,08,13,03,59,17.80
2016,08,13,04,00,17.80
2016,08,13,04,01,17.80
2016,08,13,04,02,17.70
2016,08,13,04,03,17.70
2016,08,13,04,04,17.70
2016,08,13,04,05,17.60
2016,08,13,04,06,17.60
2016,08,13,04,07,17.60
2016,08,13,04,08,17.60
2016,08,13,04,09,17.50
2016,08,13,04,10,17.50
2016,08,13,04,11,17.40
2016,08,13,04,12,17.40
2016,08,13,04,13,17.40
2016,08,13,04,14,17.30
2016,08,13,04,15,17.30
2016,08,13,04,16,17.20
2016,08,13,04,17,17.20
2016,08,13,04,18,17.20
2016,08,13,04,19,17.20
2016,08,13,04,20,17.10
2016,08,13,04,21,17.10
2016,08,13,04,22,17.10
2016,08,13,04,23,17.00
2016,08,13,04,24,17.00
2016,08,13,04,25,17.00
2016,08,13,04,26,17.00
2016,08,13,04,27,17.00
2016,08,13,04,28,17.00
2016,08,13,04,29,17.00
2016,08,13,04,30,17.00
2016,08,13,04,31,16.90
2016,08,13,04,32,17.00
2016,08,13,04,33,17.00
2016,08,13,04,34,17.00
2016,08,13,04,35,17.00
2016,08,13,04,36,17.00
2016,08,13,04,37,17.00
2016,08,13,04,38,16.90
2016,08,13,04,39,17.00
2016,08,13,04,40,17.00
2016,08,13,04,41,17.00
2016,08,13,04,42,17.00
2016,08,13,04,43,16.90
2016,08,13,04,44,16.90
2016,08,13,04,45,16.90
2016,08,13,04,46,16.90
2016,08,13,04,47,16.90
2016,08,13,04,48,16.80
2016,08,13,04,49,16.80
2016,08,13,04,50,16.80
2016,08,13,04,51,16.80
2016,08,13,04,52,16.80
2016,08,13,04,53,16.80
2016,08,13,04,54,16.80
2016,08,13,04,55,16.80
2016,08,13,04,56,16.80
2016,08,13,04,57,16.80
2016,08,13,04,58,16.80
2016,08,13,04,59,16.80
2016,08,13,05,00,16.80
2016,08,13,05,01,16.90
2016,08,13,05,02,16.90
2016,08,13,05,03,16.90
2016,08,13,05,04,16.90
2016,08,13,05,05,16.90
2016,08,13,05,06,17.00
2016,08,13,05,07,17.00
2016,08,13,05,08,17.00
2016,08,13,05,09,17.00
2016,08,13,05,10,17.00
2016,08,13,05,11,17.00
2016,08,13,05,12,17.00
2016,08,13,05,13,17.00
2016,08,13,05,14,17.00
2016,08,13,05,15,17.00
2016,08,13,05,16,17.00
2016,08,13,05,17,17.00
2016,08,13,05,18,17.00
2016,08,13,05,19,16.90
2016,08,13,05,20,16.90
2016,08,13,05,21,16.90
2016,08,13,05,22,16.90
2016,08,13,05,23,16.90
2016,08,13,05,24,16.90
2016,08,13,05,25,16.90
2016,08,13,05,26,16.90
2016,08,13,05,27,16.80
2016,08,13,05,28,16.80
2016,08,13,05,29,16.80
2016,08,13,05,30,16.80
2016,08,13,05,31,16.70
2016,08,13,05,32,16.70
2016,08,13,05,33,16.60
2016,08,13,05,34,16.60
2016,08,13,05,35,16.60
2016,08,13,05,36,16.50
2016,08,13,05,37,16.50
2016,08,13,05,38,16.50
2016,08,13,05,39,16.50
2016,08,13,05,40,16.50
2016,08,13,05,41,16.50
2016,08,13,05,42,16.50
2016,08,13,05,43,16.50
2016,08,13,05,44,16.60
2016,08,13,05,45,16.60
2016,08,13,05,46,16.60
2016,08,13,05,47,16.70
2016,08,13,05,48,16.60
2016,08,13,05,49,16.60
2016,08,13,05,50,16.70
2016,08,13,05,51,16.70
2016,08,13,05,52,16.70
2016,08,13,05,53,16.70
2016,08,13,05,54,16.70
2016,08,13,05,55,16.70
2016,08,13,05,56,16.70
2016,08,13,05,57,16.70
2016,08,13,05,58,16.80
2016,08,13,05,59,16.80
2016,08,13,06,00,16.80
2016,08,13,06,01,16.80
2016,08,13,06,02,16.80
2016,08,13,06,03,16.80
2016,08,13,06,04,16.80
2016,08,13,06,05,16.80
2016,08,13,06,06,16.80
2016,08,13,06,07,16.80
2016,08,13,06,08,16.80
2016,08,13,06,09,16.80
2016,08,13,06,10,16.90
2016,08,13,06,11,16.80
2016,08,13,06,12,16.90
2016,08,13,06,13,16.90
2016,08,13,06,14,16.90
2016,08,13,06,15,16.90
2016,08,13,06,16,16.80
2016,08,13,06,17,16.80
2016,08,13,06,18,16.80
2016,08,13,06,19,16.80
2016,08,13,06,20,16.80
2016,08,13,06,21,16.80
2016,08,13,06,22,16.80
2016,08,13,06,23,16.80
2016,08,13,06,24,16.80
2016,08,13,06,25,16.80
2016,08,13,06,26,16.80
2016,08,13,06,27,16.80
2016,08,13,06,28,16.80
2016,08,13,06,29,16.80
2016,08,13,06,30,16.80
2016,08,13,06,31,16.70
2016,08,13,06,32,16.70
2016,08,13,06,33,16.70
2016,08,13,06,34,16.70
2016,08,13,06,35,16.70
2016,08,13,06,36,16.70
2016,08,13,06,37,16.70
2016,08,13,06,38,16.70
2016,08,13,06,39,16.60
2016,08,13,06,40,16.60
2016,08,13,06,41,16.60
2016,08,13,06,42,16.60
2016,08,13,06,43,16.60
2016,08,13,06,44,16.60
2016,08,13,06,45,16.60
2016,08,13,06,46,16.50
2016,08,13,06,47,16.50
2016,08,13,06,48,16.50
2016,08,13,06,49,16.40
2016,08,13,06,50,16.40
2016,08,13,06,51,16.40
2016,08,13,06,52,16.40
2016,08,13,06,53,16.40
2016,08,13,06,54,16.30
2016,08,13,06,55,16.30
2016,08,13,06,56,16.30
2016,08,13,06,57,16.30
2016,08,13,06,58,16.30
2016,08,13,06,59,16.30
2016,08,13,07,00,16.30
2016,08,13,07,01,16.30
2016,08,13,07,02,16.30
2016,08,13,07,03,16.30
2016,08,13,07,04,16.30
2016,08,13,07,05,16.30
2016,08,13,07,06,16.30
2016,08,13,07,07,16.40
2016,08,13,07,08,16.40
2016,08,13,07,09,16.40
2016,08,13,07,10,16.40
2016,08,13,07,11,16.40
2016,08,13,07,12,16.40
2016,08,13,07,13,16.40
2016,08,13,07,14,16.50
2016,08,13,07,15,16.50
2016,08,13,07,16,16.50
2016,08,13,07,17,16.50
2016,08,13,07,18,16.50
2016,08,13,07,19,16.60
2016,08,13,07,20,16.60
2016,08,13,07,21,16.60
2016,08,13,07,22,16.60
2016,08,13,07,23,16.60
2016,08,13,07,24,16.70
2016,08,13,07,25,16.70
2016,08,13,07,26,16.70
2016,08,13,07,27,16.80
2016,08,13,07,28,16.80
2016,08,13,07,29,16.80
2016,08,13,07,30,16.80
2016,08,13,07,31,16.90
2016,08,13,07,32,16.90
2016,08,13,07,33,16.90
2016,08,13,07,34,16.90
2016,08,13,07,35,16.90
2016,08,13,07,36,17.00
2016,08,13,07,37,17.00
2016,08,13,07,38,17.00
2016,08,13,07,39,17.10
2016,08,13,07,40,17.10
2016,08,13,07,41,17.10
2016,08,13,07,42,17.10
2016,08,13,07,43,17.10
2016,08,13,07,44,17.10
2016,08,13,07,45,17.20
2016,08,13,07,46,17.20
2016,08,13,07,47,17.20
2016,08,13,07,48,17.20
2016,08,13,07,49,17.20
2016,08,13,07,50,17.20
2016,08,13,07,51,17.20
2016,08,13,07,52,17.20
2016,08,13,07,53,17.30
2016,08,13,07,54,17.30
2016,08,13,07,55,17.30
2016,08,13,07,56,17.40
2016,08,13,07,57,17.50
2016,08,13,07,58,17.50
2016,08,13,07,59,17.60
2016,08,13,08,00,17.60
2016,08,13,08,01,17.70
2016,08,13,08,02,17.80
2016,08,13,08,03,17.90
2016,08,13,08,04,17.90
2016,08,13,08,05,17.90
2016,08,13,08,06,18.00
2016,08,13,08,07,17.90
2016,08,13,08,08,17.90
2016,08,13,08,09,18.00
2016,08,13,08,10,18.00
2016,08,13,08,11,18.10
2016,08,13,08,12,18.10
2016,08,13,08,13,18.20
2016,08,13,08,14,18.20
2016,08,13,08,15,18.30
2016,08,13,08,16,18.30
2016,08,13,08,17,18.30
2016,08,13,08,18,18.40
2016,08,13,08,19,18.40
2016,08,13,08,20,18.40
2016,08,13,08,21,18.40
2016,08,13,08,22,18.40
2016,08,13,08,23,18.50
2016,08,13,08,24,18.50
2016,08,13,08,25,18.60
2016,08,13,08,26,18.60
2016,08,13,08,27,18.70
2016,08,13,08,28,18.70
2016,08,13,08,29,18.80
2016,08,13,08,30,18.80
2016,08,13,08,31,18.80
2016,08,13,08,32,18.80
2016,08,13,08,33,18.80
2016,08,13,08,34,18.70
2016,08,13,08,35,18.70
2016,08,13,08,36,18.70
2016,08,13,08,37,18.70
2016,08,13,08,38,18.70
2016,08,13,08,39,18.70
2016,08,13,08,40,18.70
2016,08,13,08,41,18.80
2016,08,13,08,42,18.80
2016,08,13,08,43,18.80
2016,08,13,08,44,18.80
2016,08,13,08,45,18.90
2016,08,13,08,46,18.90
2016,08,13,08,47,18.90
2016,08,13,08,48,18.90
2016,08,13,08,49,19.00
2016,08,13,08,50,19.10
2016,08,13,08,51,19.20
2016,08,13,08,52,19.20
2016,08,13,08,53,19.20
2016,08,13,08,54,19.20
2016,08,13,08,55,19.20
2016,08,13,08,56,19.20
2016,08,13,08,57,19.20
2016,08,13,08,58,19.20
2016,08,13,08,59,19.10
2016,08,13,09,00,19.10
2016,08,13,09,01,19.10
2016,08,13,09,02,19.10
2016,08,13,09,03,19.10
2016,08,13,09,04,19.20
2016,08,13,09,05,19.20
2016,08,13,09,06,19.20
2016,08,13,09,07,19.20
2016,08,13,09,08,19.20
2016,08,13,09,09,19.20
2016,08,13,09,10,19.20
2016,08,13,09,11,19.20
2016,08,13,09,12,19.30
2016,08,13,09,13,19.30
2016,08,13,09,14,19.30
2016,08,13,09,15,19.40
2016,08,13,09,16,19.50
2016,08,13,09,17,19.50
2016,08,13,09,18,19.60
2016,08,13,09,19,19.70
2016,08,13,09,20,19.70
2016,08,13,09,21,19.70
2016,08,13,09,22,19.70
2016,08,13,09,23,19.80
2016,08,13,09,24,19.70
2016,08,13,09,25,19.70
2016,08,13,09,26,19.70
2016,08,13,09,27,19.80
2016,08,13,09,28,19.90
2016,08,13,09,29,20.00
2016,08,13,09,30,20.10
2016,08,13,09,31,20.10
2016,08,13,09,32,20.10
2016,08,13,09,33,20.20
2016,08,13,09,34,20.20
2016,08,13,09,35,20.20
2016,08,13,09,36,20.20
2016,08,13,09,37,20.20
2016,08,13,09,38,20.10
2016,08,13,09,39,20.10
2016,08,13,09,40,19.90
2016,08,13,09,41,19.80
2016,08,13,09,42,19.70
2016,08,13,09,43,19.50
2016,08,13,09,44,19.40
2016,08,13,09,45,19.30
2016,08,13,09,46,19.30
2016,08,13,09,47,19.20
2016,08,13,09,48,19.20
2016,08,13,09,49,19.20
2016,08,13,09,50,19.10
2016,08,13,09,51,19.10
2016,08,13,09,52,19.10
2016,08,13,09,53,19.10
2016,08,13,09,54,19.10
2016,08,13,09,55,19.10
2016,08,13,09,56,19.20
2016,08,13,09,57,19.30
2016,08,13,09,58,19.40
2016,08,13,09,59,19.50
2016,08,13,10,00,19.50
2016,08,13,10,01,19.50
2016,08,13,10,02,19.60
2016,08,13,10,03,19.60
2016,08,13,10,04,19.70
2016,08,13,10,05,19.80
2016,08,13,10,06,19.90
2016,08,13,10,07,20.10
2016,08,13,10,08,20.20
2016,08,13,10,09,20.30
2016,08,13,10,10,20.30
2016,08,13,10,11,20.30
2016,08,13,10,12,20.30
2016,08,13,10,13,20.20
2016,08,13,10,14,20.20
2016,08,13,10,15,20.20
2016,08,13,10,16,20.20
2016,08,13,10,17,20.20
2016,08,13,10,18,20.20
2016,08,13,10,19,20.20
2016,08,13,10,20,20.30
2016,08,13,10,21,20.30
2016,08,13,10,22,20.30
2016,08,13,10,23,20.30
2016,08,13,10,24,20.30
2016,08,13,10,25,20.30
2016,08,13,10,26,20.30
2016,08,13,10,27,20.30
2016,08,13,10,28,20.40
2016,08,13,10,29,20.40
2016,08,13,10,30,20.40
2016,08,13,10,31,20.40
2016,08,13,10,32,20.50
2016,08,13,10,33,20.50
2016,08,13,10,34,20.50
2016,08,13,10,35,20.50
2016,08,13,10,36,20.50
2016,08,13,10,37,20.40
2016,08,13,10,38,20.30
2016,08,13,10,39,20.30
2016,08,13,10,40,20.30
2016,08,13,10,41,20.40
2016,08,13,10,42,20.40
2016,08,13,10,43,20.40
2016,08,13,10,44,20.50
2016,08,13,10,45,20.50
2016,08,13,10,46,20.50
2016,08,13,10,47,20.60
2016,08,13,10,48,20.60
2016,08,13,10,49,20.70
2016,08,13,10,50,20.70
2016,08,13,10,51,20.80
2016,08,13,10,52,20.80
2016,08,13,10,53,20.80
2016,08,13,10,54,20.80
2016,08,13,10,55,20.80
2016,08,13,10,56,20.80
2016,08,13,10,57,20.70
2016,08,13,10,58,20.70
2016,08,13,10,59,20.70
2016,08,13,11,00,20.70
2016,08,13,11,01,20.70
2016,08,13,11,02,20.80
2016,08,13,11,03,20.90
2016,08,13,11,04,20.90
2016,08,13,11,05,20.90
2016,08,13,11,06,20.90
2016,08,13,11,07,20.90
2016,08,13,11,08,20.90
2016,08,13,11,09,21.00
2016,08,13,11,10,21.00
2016,08,13,11,11,21.10
2016,08,13,11,12,21.20
2016,08,13,11,13,21.30
2016,08,13,11,14,21.30
2016,08,13,11,15,21.30
2016,08,13,11,16,21.30
2016,08,13,11,17,21.20
2016,08,13,11,18,21.20
2016,08,13,11,19,21.20
2016,08,13,11,20,21.30
2016,08,13,11,21,21.30
2016,08,13,11,22,21.30
2016,08,13,11,23,21.20
2016,08,13,11,24,21.20
2016,08,13,11,25,21.20
2016,08,13,11,26,21.20
2016,08,13,11,27,21.20
2016,08,13,11,28,21.20
2016,08,13,11,29,21.20
2016,08,13,11,30,21.30
2016,08,13,11,31,21.40
2016,08,13,11,32,21.60
2016,08,13,11,33,21.70
2016,08,13,11,34,21.80
2016,08,13,11,35,22.00
2016,08,13,11,36,22.10
2016,08,13,11,37,22.10
2016,08,13,11,38,22.20
2016,08,13,11,39,22.20
2016,08,13,11,40,22.20
2016,08,13,11,41,22.10
2016,08,13,11,42,22.10
2016,08,13,11,43,22.10
2016,08,13,11,44,22.10
2016,08,13,11,45,22.10
2016,08,13,11,46,22.20
2016,08,13,11,47,22.20
2016,08,13,11,48,22.10
2016,08,13,11,49,22.10
2016,08,13,11,50,22.10
2016,08,13,11,51,22.20
2016,08,13,11,52,22.20
2016,08,13,11,53,22.20
2016,08,13,11,54,22.20
2016,08,13,11,55,22.10
2016,08,13,11,56,22.10
2016,08,13,11,57,22.10
2016,08,13,11,58,22.10
2016,08,13,11,59,22.10
2016,08,13,12,00,22.10
2016,08,13,12,01,22.00
2016,08,13,12,02,22.10
2016,08,13,12,03,22.10
2016,08,13,12,04,22.10
2016,08,13,12,05,22.10
2016,08,13,12,06,22.10
2016,08,13,12,07,22.20
2016,08,13,12,08,22.30
2016,08,13,12,09,22.20
2016,08,13,12,10,22.20
2016,08,13,12,11,22.10
2016,08,13,12,12,22.20
2016,08,13,12,13,22.20
2016,08,13,12,14,22.20
2016,08,13,12,15,22.20
2016,08,13,12,16,22.30
2016,08,13,12,17,22.30
2016,08,13,12,18,22.30
2016,08,13,12,19,22.40
2016,08,13,12,20,22.40
2016,08,13,12,21,22.40
2016,08,13,12,22,22.40
2016,08,13,12,23,22.40
2016,08,13,12,24,22.40
2016,08,13,12,25,22.50
2016,08,13,12,26,22.60
2016,08,13,12,27,22.70
2016,08,13,12,28,22.70
2016,08,13,12,29,22.70
2016,08,13,12,30,22.70
2016,08,13,12,31,22.60
2016,08,13,12,32,22.60
2016,08,13,12,33,22.60
2016,08,13,12,34,22.60
2016,08,13,12,35,22.60
2016,08,13,12,36,22.70
2016,08,13,12,37,22.80
2016,08,13,12,38,22.90
2016,08,13,12,39,23.00
2016,08,13,12,40,23.00
2016,08,13,12,41,23.10
2016,08,13,12,42,23.20
2016,08,13,12,43,23.30
2016,08,13,12,44,23.30
2016,08,13,12,45,23.10
2016,08,13,12,46,22.90
2016,08,13,12,47,22.70
2016,08,13,12,48,22.70
2016,08,13,12,49,22.70
2016,08,13,12,50,22.80
2016,08,13,12,51,22.90
2016,08,13,12,52,22.90
2016,08,13,12,53,22.90
2016,08,13,12,54,22.80
2016,08,13,12,55,22.70
2016,08,13,12,56,22.70
2016,08,13,12,57,22.70
2016,08,13,12,58,22.70
2016,08,13,12,59,22.70
2016,08,13,13,00,22.80
2016,08,13,13,01,22.80
2016,08,13,13,02,22.80
2016,08,13,13,03,22.80
2016,08,13,13,04,22.80
2016,08,13,13,05,22.80
2016,08,13,13,06,22.80
2016,08,13,13,07,22.80
2016,08,13,13,08,22.90
2016,08,13,13,09,23.00
2016,08,13,13,10,23.10
2016,08,13,13,11,23.20
2016,08,13,13,12,23.40
2016,08,13,13,13,23.40
2016,08,13,13,14,23.30
2016,08,13,13,15,23.30
2016,08,13,13,16,23.20
2016,08,13,13,17,23.20
2016,08,13,13,18,23.30
2016,08,13,13,19,23.30
2016,08,13,13,20,23.20
2016,08,13,13,21,23.10
2016,08,13,13,22,23.20
2016,08,13,13,23,23.20
2016,08,13,13,24,23.30
2016,08,13,13,25,23.40
2016,08,13,13,26,23.40
2016,08,13,13,27,23.40
2016,08,13,13,28,23.30
2016,08,13,13,29,23.20
2016,08,13,13,30,23.10
2016,08,13,13,31,23.10
2016,08,13,13,32,23.10
2016,08,13,13,33,23.10
2016,08,13,13,34,23.20
2016,08,13,13,35,23.20
2016,08,13,13,36,23.30
2016,08,13,13,37,23.40
2016,08,13,13,38,23.60
2016,08,13,13,39,23.70
2016,08,13,13,40,23.70
2016,08,13,13,41,23.80
2016,08,13,13,42,23.90
2016,08,13,13,43,23.90
2016,08,13,13,44,23.90
2016,08,13,13,45,23.90
2016,08,13,13,46,23.90
2016,08,13,13,47,23.90
2016,08,13,13,48,23.90
2016,08,13,13,49,23.80
2016,08,13,13,50,23.80
2016,08,13,13,51,23.70
2016,08,13,13,52,23.70
2016,08,13,13,53,23.70
2016,08,13,13,54,23.60
2016,08,13,13,55,23.60
2016,08,13,13,56,23.70
2016,08,13,13,57,23.70
2016,08,13,13,58,23.80
2016,08,13,13,59,23.80
2016,08,13,14,00,23.90
2016,08,13,14,01,24.00
2016,08,13,14,02,24.00
2016,08,13,14,03,24.00
2016,08,13,14,04,24.00
2016,08,13,14,05,24.00
2016,08,13,14,06,24.00
2016,08,13,14,07,24.00
2016,08,13,14,08,24.00
2016,08,13,14,09,24.00
2016,08,13,14,10,24.00
2016,08,13,14,11,24.10
2016,08,13,14,12,24.10
2016,08,13,14,13,24.20
2016,08,13,14,14,24.20
2016,08,13,14,15,24.20
2016,08,13,14,16,24.20
2016,08,13,14,17,24.20
2016,08,13,14,18,24.20
2016,08,13,14,19,24.20
2016,08,13,14,20,24.20
2016,08,13,14,21,24.20
2016,08,13,14,22,24.20
2016,08,13,14,23,24.20
2016,08,13,14,24,24.20
2016,08,13,14,25,24.20
2016,08,13,14,26,24.20
2016,08,13,14,27,24.30
2016,08,13,14,28,24.40
2016,08,13,14,29,24.40
2016,08,13,14,30,24.40
2016,08,13,14,31,24.40
2016,08,13,14,32,24.40
2016,08,13,14,33,24.40
2016,08,13,14,34,24.30
2016,08,13,14,35,24.30
2016,08,13,14,36,24.30
2016,08,13,14,37,24.30
2016,08,13,14,38,24.40
2016,08,13,14,39,24.50
2016,08,13,14,40,24.70
2016,08,13,14,41,24.80
2016,08,13,14,42,25.00
2016,08,13,14,43,25.20
2016,08,13,14,44,25.30
2016,08,13,14,45,25.40
2016,08,13,14,46,25.40
2016,08,13,14,47,25.50
2016,08,13,14,48,25.50
2016,08,13,14,49,25.50
2016,08,13,14,50,25.50
2016,08,13,14,51,25.50
2016,08,13,14,52,25.60
2016,08,13,14,53,25.70
2016,08,13,14,54,25.70
2016,08,13,14,55,25.80
2016,08,13,14,56,25.90
2016,08,13,14,57,26.00
2016,08,13,14,58,26.10
2016,08,13,14,59,26.10
2016,08,13,15,00,26.10
2016,08,13,15,01,26.20
2016,08,13,15,02,26.20
2016,08,13,15,03,26.20
2016,08,13,15,04,26.20
2016,08,13,15,05,26.10
2016,08,13,15,06,26.10
2016,08,13,15,07,26.10
2016,08,13,15,08,26.10
2016,08,13,15,09,26.10
2016,08,13,15,10,26.20
2016,08,13,15,11,26.20
2016,08,13,15,12,26.30
2016,08,13,15,13,26.30
2016,08,13,15,14,26.30
2016,08,13,15,15,26.20
2016,08,13,15,16,26.20
2016,08,13,15,17,26.20
2016,08,13,15,18,26.20
2016,08,13,15,19,26.20
2016,08,13,15,20,26.20
2016,08,13,15,21,26.30
2016,08,13,15,22,26.30
2016,08,13,15,23,26.30
2016,08,13,15,24,26.40
2016,08,13,15,25,26.40
2016,08,13,15,26,26.50
2016,08,13,15,27,26.60
2016,08,13,15,28,26.70
2016,08,13,15,29,26.70
2016,08,13,15,30,26.70
2016,08,13,15,31,26.80
2016,08,13,15,32,26.90
2016,08,13,15,33,26.90
2016,08,13,15,34,27.00
2016,08,13,15,35,27.00
2016,08,13,15,36,27.00
2016,08,13,15,37,26.90
2016,08,13,15,38,26.80
2016,08,13,15,39,26.80
2016,08,13,15,40,26.70
2016,08,13,15,41,26.80
2016,08,13,15,42,26.80
2016,08,13,15,43,26.90
2016,08,13,15,44,27.00
2016,08,13,15,45,27.00
2016,08,13,15,46,27.10
2016,08,13,15,47,27.20
2016,08,13,15,48,27.20
2016,08,13,15,49,27.20
2016,08,13,15,50,27.20
2016,08,13,15,51,27.30
2016,08,13,15,52,27.30
2016,08,13,15,53,27.30
2016,08,13,15,54,27.40
2016,08,13,15,55,27.50
2016,08,13,15,56,27.60
2016,08,13,15,57,27.70
2016,08,13,15,58,27.70
2016,08,13,15,59,27.70
2016,08,13,16,00,27.60
2016,08,13,16,01,27.60
2016,08,13,16,02,27.60
2016,08,13,16,03,27.50
2016,08,13,16,04,27.40
2016,08,13,16,05,27.40
2016,08,13,16,06,27.30
2016,08,13,16,07,27.30
2016,08,13,16,08,27.30
2016,08,13,16,09,27.40
2016,08,13,16,10,27.40
2016,08,13,16,11,27.50
2016,08,13,16,12,27.50
2016,08,13,16,13,27.50
2016,08,13,16,14,27.60
2016,08,13,16,15,27.60
2016,08,13,16,16,27.60
2016,08,13,16,17,27.70
2016,08,13,16,18,27.70
2016,08,13,16,19,27.80
2016,08,13,16,20,27.90
2016,08,13,16,21,27.80
2016,08,13,16,22,27.80
2016,08,13,16,23,27.80
2016,08,13,16,24,27.80
2016,08,13,16,25,27.80
2016,08,13,16,26,27.80
2016,08,13,16,27,27.80
2016,08,13,16,28,27.80
2016,08,13,16,29,27.80
2016,08,13,16,30,27.70
2016,08,13,16,31,27.70
2016,08,13,16,32,27.70
2016,08,13,16,33,27.70
2016,08,13,16,34,27.80
2016,08,13,16,35,27.80
2016,08,13,16,36,27.90
2016,08,13,16,37,28.00
2016,08,13,16,38,28.00
2016,08,13,16,39,28.10
2016,08,13,16,40,28.10
2016,08,13,16,41,28.10
2016,08,13,16,42,28.10
2016,08,13,16,43,28.20
2016,08,13,16,44,28.20
2016,08,13,16,45,28.20
2016,08,13,16,46,28.20
2016,08,13,16,47,28.20
2016,08,13,16,48,28.30
2016,08,13,16,49,28.30
2016,08,13,16,50,28.40
2016,08,13,16,51,28.40
2016,08,13,16,52,28.40
2016,08,13,16,53,28.50
2016,08,13,16,54,28.50
2016,08,13,16,55,28.60
2016,08,13,16,56,28.60
2016,08,13,16,57,28.50
2016,08,13,16,58,28.40
2016,08,13,16,59,28.40
2016,08,13,17,00,28.40
2016,08,13,17,01,28.40
2016,08,13,17,02,28.40
2016,08,13,17,03,28.40
2016,08,13,17,04,28.40
2016,08,13,17,05,28.40
2016,08,13,17,06,28.40
2016,08,13,17,07,28.40
2016,08,13,17,08,28.40
2016,08,13,17,09,28.30
2016,08,13,17,10,28.40
2016,08,13,17,11,28.30
2016,08,13,17,12,28.20
2016,08,13,17,13,28.20
2016,08,13,17,14,28.10
2016,08,13,17,15,28.10
2016,08,13,17,16,28.10
2016,08,13,17,17,28.00
2016,08,13,17,18,28.00
2016,08,13,17,19,28.00